Hourly Data Report for April 30, 2017

TORONTO CITY
ONTARIO

43°40'00.000" N
79°24'00.000" W
112.50 m
6158355
71508
XTO

Download Data

Hourly Data (April 2017)
Hourly Data Report for April 30, 2017
TIME
LST
Temp Definition
°C
Dew Point Definition
°C
Rel Hum Definition
%
Precip. Amount Definition
mm

Wind Dir Definition
10's deg

Wind Spd Definition
km/h
Visibility Definition
km
Stn Press Definition
kPa
Hmdx Definition


Wind Chill Definition


Weather Definition


00:00 8.6 -1.8 48 0.0 LegendMM LegendMM   101.06     LegendNANA
01:00 8.5 -1.0 51 0.0 LegendMM LegendMM   101.04     LegendNANA
02:00 8.4 -0.8 52 0.0 LegendMM LegendMM   100.95     LegendNANA
03:00 7.6 0.4 61 0.0 LegendMM LegendMM   100.96     LegendNANA
04:00 6.3 -0.9 60 0.0 LegendMM LegendMM   100.93     LegendNANA
05:00 5.5 -1.0 63 0.0 LegendMM LegendMM   101.03     LegendNANA
06:00 3.7 -0.1 76 1.0 LegendMM LegendMM   101.07     LegendNANA
07:00 4.0 -0.4 73 0.0 LegendMM LegendMM   101.08     LegendNANA
08:00 4.7 -0.5 69 0.0 LegendMM LegendMM   100.90     LegendNANA
09:00 4.7 -0.4 70 0.0 LegendMM LegendMM   100.97     LegendNANA
10:00 4.7 -0.2 71 0.0 LegendMM LegendMM   100.86     LegendNANA
11:00 4.9 -0.2 70 0.0 LegendMM LegendMM   100.79     LegendNANA
12:00 5.2 0.1 69 0.0 LegendMM LegendMM   100.66     LegendNANA
13:00 5.3 0.3 70 0.0 LegendMM LegendMM   100.56     LegendNANA
14:00 5.4 0.9 73 0.2 LegendMM LegendMM   100.43     LegendNANA
15:00 5.9 1.2 72 0.0 LegendMM LegendMM   100.31     LegendNANA
16:00 6.4 1.6 71 0.0 LegendMM LegendMM   100.24     LegendNANA
17:00 6.2 2.6 77 0.3 LegendMM LegendMM   100.30     LegendNANA
18:00 7.1 3.4 77 0.5 LegendMM LegendMM   100.21     LegendNANA
19:00 7.9 3.5 74 0.0 LegendMM LegendMM   100.07     LegendNANA
20:00 7.5 3.3 75 0.0 LegendMM LegendMM   100.03     LegendNANA
21:00 5.8 3.2 83 1.4 LegendMM LegendMM   100.06     LegendNANA
22:00 5.2 3.9 91 6.9 LegendMM LegendMM   99.99     LegendNANA
23:00 4.7 3.6 93 3.1 LegendMM LegendMM   99.83     LegendNANA

Notes on Data Quality.

Legend

  • E = Estimated
  • M = Missing
  • NA = Not Available*
  • [empty] = Indicates an unobserved value
Date modified: